Dewpoint
58 53 50 51 54 52 42 40 25 33 31 27 29 22 13 18 19 23 23 24 24 26 26 27 27 28 23 24 22 23 25 26 24 20 24 38 51 57 58 60 64 66 66 67 69 70 70 70 71 71 72 72 72 71 71 72 71 71 70 70 70 71 71 70 70 70 70 70 70 70 70 70 69 69 70 70 70 70 70 70 70 70 71 71 70 70 70 69 69 68 68 68 67 67 67 66 66
53 53 51 54 50 41 35 37 30 31 28 18 21 20 15 19 22 22 21 26 25 25 28 27 27 29 30 28 25 28 26 26 26 27 37 52 56 55 57 62 66 66 66 67 69 70 70 70 70 71 72 72 72 71 72 72 71 71 71 70 70 70 70 70 70 70 70 70 70 70 70 70 69 70 69 70 70 70 70 70 70 70 70 71 70 70 69 69 68 68 67 67 66 66 65 65 64
58 54 53 48 45 43 41 37 28 29 22 13 16 16 19 19 19 20 24 24 24 27 28 27 28 30 28 27 26 25 25 29 38 50 49 54 48 48 57 60 66 66 66 67 69 69 69 69 69 71 72 72 71 71 72 72 71 71 71 71 70 70 70 70 70 70 70 70 70 70 70 70 70 70 69 69 70 70 70 70 70 70 70 70 70 69 69 68 67 67 67 66 65 65 64 64 64
56 56 52 46 38 43 37 34 33 29 23 20 16 18 18 18 18 21 23 24 25 25 26 26 26 29 26 24 26 27 26 27 41 49 45 51 49 49 59 62 64 66 67 68 68 69 69 69 69 71 72 72 72 71 72 72 71 71 71 71 70 70 70 70 70 70 70 70 70 70 70 70 70 70 70 69 69 70 69 70 70 70 70 69 69 69 68 67 66 66 66 66 64 63 63 63 63
53 57 53 45 40 35 36 33 29 24 18 22 13 15 24 22 20 21 23 23 26 25 25 27 25 27 28 28 29 26 24 31 32 46 48 52 55 55 61 64 66 66 66 67 68 69 69 69 69 71 72 72 71 72 72 72 71 71 71 71 70 70 70 70 70 70 70 69 70 70 70 70 70 70 70 70 69 69 70 70 70 69 69 69 69 68 67 66 66 65 64 65 64 63 62 62 62
52 51 50 44 33 39 33 21 24 23 23 24 15 15 17 18 21 20 21 25 27 26 25 26 24 26 25 30 29 23 29 28 34 50 52 48 58 59 60 64 66 66 66 67 68 68 69 68 69 71 72 71 71 72 72 72 71 71 71 71 70 70 70 70 70 70 70 70 70 70 70 70 70 70 70 70 70 70 69 69 69 69 69 68 67 67 66 64 64 64 64 64 64 62 61 61 61
45 45 45 40 37 36 26 24 24 25 23 22 17 15 15 18 19 22 21 25 26 27 28 25 27 25 23 26 27 31 40 43 40 45 51 52 59 61 60 64 65 65 66 67 68 68 68 68 70 71 72 71 71 72 72 72 71 71 71 71 70 70 70 70 70 70 70 70 70 70 70 70 70 70 70 70 69 69 69 68 68 68 67 67 66 65 64 64 63 62 62 62 63 61 60 59 59
50 37 39 31 31 32 27 22 25 26 24 21 19 18 16 20 23 23 23 21 22 25 26 29 28 23 22 27 25 31 42 55 52 56 55 59 60 59 59 63 65 65 66 66 67 68 67 68 69 71 71 71 71 72 72 72 71 71 71 71 70 70 70 70 70 70 70 70 70 70 70 70 70 70 69 69 69 68 68 68 67 67 66 65 65 64 63 62 61 61 61 61 61 60 59 58 58
46 37 42 36 29 33 30 28 29 30 27 22 13 23 32 22 23 22 23 25 24 27 27 27 28 23 22 25 25 30 40 50 55 57 58 58 60 59 58 60 65 65 65 66 67 67 68 67 69 70 71 71 71 72 72 72 72 72 71 71 71 70 70 70 70 71 70 70 70 70 70 70 70 70 69 69 69 69 68 68 67 67 66 65 64 64 63 62 61 62 61 61 60 59 58 57 56
42 34 28 31 33 26 28 28 20 21 19 20 18 17 22 22 21 23 22 21 23 26 25 28 27 24 25 24 25 30 40 50 54 56 57 58 59 59 58 57 64 65 65 65 66 67 68 66 68 69 70 71 71 72 72 72 72 72 71 71 70 70 70 70 70 71 71 71 71 70 70 70 70 70 69 69 68 68 68 67 67 66 66 65 65 64 63 62 62 62 61 60 59 57 56 55 55
39 42 39 30 27 24 23 23 25 26 23 21 21 22 23 24 22 23 23 22 23 22 25 28 26 26 26 26 27 36 48 50 53 53 56 57 58 58 57 56 59 64 65 65 66 67 67 67 66 68 69 70 70 71 72 71 72 72 71 71 71 71 71 71 71 71 71 71 71 71 70 70 70 70 69 69 68 68 68 67 67 66 65 64 64 64 62 61 61 60 60 58 58 57 56 56 56
34 37 35 28 25 24 27 23 24 24 26 24 20 22 21 24 25 20 21 16 19 16 24 26 26 26 25 26 29 36 43 47 51 52 55 56 57 57 56 55 55 62 64 64 65 66 67 67 67 67 68 68 69 70 70 71 71 71 71 71 71 71 71 71 71 71 71 71 71 71 70 70 70 70 69 68 68 67 67 66 66 66 65 63 61 61 61 61 60 59 59 59 57 56 56 56 55
36 37 32 26 25 25 27 23 25 34 28 17 22 20 22 21 20 20 21 19 19 16 21 25 26 25 25 27 31 37 39 42 46 50 51 56 57 56 56 56 56 60 63 64 65 66 66 67 68 68 67 66 67 68 68 69 70 70 71 71 71 70 70 71 71 71 71 71 71 71 70 70 69 69 69 68 68 67 66 65 65 65 63 62 61 61 61 60 59 59 59 58 57 57 56 55 55
37 37 30 25 29 26 24 23 26 22 18 20 21 23 21 18 19 21 19 18 18 16 20 26 25 25 23 22 22 32 37 40 49 51 53 56 56 56 56 56 56 59 62 64 65 65 66 66 67 68 68 68 68 67 66 67 68 69 70 70 70 70 70 70 70 70 70 70 70 69 69 68 68 68 68 68 68 67 66 65 65 63 63 62 61 61 61 60 59 59 59 57 57 57 56 55 54
32 40 34 29 27 24 27 21 23 22 17 20 21 21 19 21 21 22 19 19 18 19 26 27 27 18 12 18 17 27 35 41 50 51 51 52 55 56 56 56 57 57 60 64 64 65 65 66 67 67 67 68 68 69 69 68 66 68 68 69 69 69 69 69 69 69 68 68 68 67 67 66 66 66 65 65 66 65 64 63 64 65 63 62 61 61 61 60 59 59 58 57 57 56 55 54 52
39 38 32 27 23 22 25 25 28 23 19 23 21 22 16 17 20 21 21 19 23 28 23 19 28 19 19 20 19 21 30 47 50 53 53 53 54 55 56 56 56 57 59 61 63 64 65 65 66 67 67 68 68 69 69 69 66 65 67 68 68 68 68 68 67 67 66 65 65 65 64 64 64 64 61 63 63 64 62 61 62 64 63 62 62 61 60 60 59 59 58 57 57 55 53 51 50
43 35 22 27 18 24 27 23 23 21 22 24 21 19 15 14 16 23 25 24 22 21 23 22 22 26 23 20 26 44 48 52 53 53 53 53 53 54 55 55 55 56 58 59 62 64 64 65 65 66 66 67 68 68 69 69 68 64 65 65 65 66 66 66 66 64 62 62 62 61 61 64 64 63 62 63 59 61 58 59 61 64 64 64 63 61 60 60 59 59 58 57 56 55 53 51 49
36 27 27 23 27 26 31 23 22 23 20 18 18 18 14 18 17 18 22 23 23 23 21 22 22 23 23 27 46 48 50 51 52 52 51 51 52 52 53 54 54 57 58 58 59 62 64 65 65 65 66 67 67 68 69 69 69 66 68 67 66 66 65 64 65 66 63 65 62 62 63 63 63 62 62 60 60 59 58 58 59 62 64 63 63 63 61 60 59 59 58 57 56 53 49 38 39
32 32 25 20 28 28 31 25 24 19 20 18 18 19 20 21 20 20 17 16 16 16 17 19 19 20 22 22 34 47 50 50 51 51 51 51 53 54 54 55 56 55 57 58 59 60 63 64 65 65 66 67 67 68 69 69 69 67 68 67 66 65 64 64 65 65 64 64 63 62 61 61 61 61 60 59 58 57 58 57 59 61 62 62 61 62 62 60 59 59 58 57 54 50 39 36 34
36 30 28 30 32 29 29 27 26 22 21 21 22 22 26 22 21 20 20 18 19 18 17 17 17 17 19 22 32 46 48 49 50 50 50 51 52 54 53 54 56 57 57 58 59 59 61 63 64 65 65 66 67 68 68 68 68 68 68 67 67 67 66 65 65 64 64 62 62 61 60 60 60 60 58 57 57 57 57 57 58 59 60 60 59 60 61 61 59 58 58 56 51 42 36 36 32
34 30 29 29 31 29 26 27 25 24 23 23 22 22 21 20 22 21 20 19 18 18 18 18 17 17 19 22 24 45 46 47 49 49 48 48 49 51 51 52 55 57 58 57 56 59 60 61 63 64 64 65 66 67 67 68 68 67 67 67 67 67 66 65 65 64 63 62 61 60 60 59 59 59 58 57 57 56 56 56 57 57 57 56 57 55 55 56 56 53 53 46 40 39 35 34 32
34 30 31 31 30 27 26 27 28 23 23 21 20 20 19 23 23 21 20 19 18 17 18 20 20 21 20 20 22 40 44 45 46 49 48 47 46 46 48 49 50 52 53 56 57 58 59 61 62 64 64 65 65 67 67 67 67 67 67 67 66 66 65 65 64 63 62 62 60 60 59 59 58 57 57 56 56 56 55 55 55 55 54 55 55 54 53 53 51 50 47 41 41 40 37 35 31
28 29 30 31 29 26 27 24 24 22 22 21 21 23 23 23 23 22 21 20 20 21 21 21 20 20 21 22 26 30 37 40 41 44 46 46 45 45 45 47 47 48 52 55 56 58 59 60 60 61 63 64 64 65 66 66 66 67 67 66 66 65 65 64 63 62 62 61 60 59 59 58 58 57 56 56 55 55 55 55 54 54 54 54 53 54 52 51 51 49 46 42 40 38 37 37 36
31 28 29 28 30 28 28 26 25 21 22 21 24 24 21 21 19 22 22 21 21 22 22 22 22 22 22 22 22 21 23 27 34 38 40 42 43 42 43 43 45 46 50 52 54 56 57 59 60 60 62 63 64 64 65 66 66 66 66 65 65 64 64 64 63 62 61 60 60 59 58 58 58 57 56 55 55 54 55 54 54 53 53 53 52 53 52 49 50 48 47 42 39 37 35 36 36
31 29 24 27 23 27 27 23 21 21 21 21 23 20 19 20 19 23 20 20 21 21 23 24 24 23 23 22 21 22 24 26 26 29 33 35 38 40 42 43 43 46 48 50 52 55 56 58 60 60 61 61 63 64 64 65 65 65 65 65 65 62 64 64 63 61 61 60 59 58 58 58 58 57 56 55 54 55 54 54 53 53 53 53 52 51 52 50 49 48 47 45 40 36 36 36 36
24 24 23 22 22 22 21 21 21 21 21 21 19 19 19 19 21 21 20 20 21 22 22 21 21 19 19 19 20 20 20 23 27 27 29 33 36 38 39 40 42 42 45 47 51 54 55 57 58 60 60 61 62 63 64 64 63 64 64 64 64 62 63 63 61 61 60 60 59 59 58 58 58 57 56 55 55 54 53 53 53 52 53 52 52 52 50 50 49 46 46 45 42 36 35 36 36
22 22 22 21 21 21 22 20 20 20 21 20 19 18 18 21 22 18 21 22 23 21 20 20 21 20 19 19 20 25 30 32 33 34 36 36 36 36 37 39 42 42 42 42 47 52 54 56 57 59 60 59 60 61 62 63 62 62 62 62 62 61 61 61 60 60 59 59 59 57 57 57 57 57 56 55 54 54 53 53 53 52 52 51 51 51 49 50 48 48 46 45 43 37 35 35 34
23 22 21 21 21 21 20 20 20 20 18 20 19 18 19 19 25 19 18 19 21 20 20 20 21 21 20 21 30 35 35 36 36 37 36 36 37 36 35 36 38 42 43 42 43 50 54 56 57 58 59 59 59 59 59 60 60 60 59 60 60 60 59 59 59 58 57 58 57 57 56 56 56 56 56 55 54 53 53 53 52 52 52 51 51 50 48 48 47 45 43 42 40 37 34 34 34
23 21 20 20 20 19 19 19 19 20 19 20 19 18 17 21 18 19 19 20 21 20 19 19 19 18 20 29 35 36 36 36 37 37 37 37 38 38 37 37 38 38 42 44 43 51 54 55 57 56 57 57 58 59 59 59 59 59 58 59 59 58 58 58 58 58 58 57 57 56 56 56 55 55 54 54 53 53 53 52 52 52 52 51 50 49 48 46 43 41 39 37 36 34 33 33 34
22 21 20 18 18 18 19 21 20 20 19 20 19 16 18 17 18 19 20 21 20 18 18 19 21 21 28 34 35 36 36 36 36 37 37 38 38 38 38 38 39 40 41 45 45 47 51 54 56 56 57 58 58 58 57 57 57 57 57 57 57 57 57 57 57 57 57 57 56 56 56 55 55 55 54 53 53 52 52 52 52 52 51 50 50 48 48 45 43 40 39 35 36 33 32 31 32
20 20 20 19 18 19 20 24 21 20 22 20 19 18 18 18 18 19 19 19 19 18 19 19 20 26 33 35 35 36 36 36 36 36 37 38 38 38 38 38 39 40 42 46 49 49 51 51 54 56 54 55 55 56 56 56 54 56 55 56 56 56 56 56 56 56 55 56 56 56 55 55 54 54 53 54 52 52 51 51 51 52 50 49 50 48 47 43 42 39 36 34 33 32 31 31 31
20 20 21 26 18 20 22 22 22 20 20 19 18 20 17 17 17 18 18 19 19 18 18 18 22 32 34 34 34 34 35 35 36 36 37 37 37 38 38 38 39 39 41 44 48 49 50 51 52 52 52 53 53 53 53 54 54 53 54 54 55 54 55 55 55 56 56 54 55 55 54 54 54 53 52 52 53 52 51 51 51 50 49 48 48 46 45 43 40 38 35 33 31 30 30 28 31
28 20 23 23 21 20 21 21 22 23 19 18 17 18 17 18 19 19 19 19 19 18 18 19 28 34 34 33 33 33 34 34 35 35 36 37 37 37 37 37 38 39 40 41 43 45 46 47 50 52 52 51 52 52 52 52 53 53 53 54 54 54 54 54 53 54 54 54 54 55 54 54 53 52 51 51 52 51 50 51 49 49 47 48 47 45 44 42 39 38 33 32 31 30 29 27 29
22 24 20 25 20 20 20 24 25 26 20 17 19 16 16 17 18 18 18 19 20 20 20 22 33 33 33 33 32 32 33 33 34 34 35 36 37 37 36 38 37 38 39 39 40 41 42 44 46 49 52 52 52 52 52 52 53 53 53 53 53 54 53 53 54 54 53 53 54 54 54 54 53 51 51 50 51 51 50 50 48 47 46 46 45 42 42 38 37 36 34 31 30 29 27 26 27
23 23 22 23 24 21 19 22 23 24 25 24 24 23 22 23 23 23 23 23 22 22 21 27 33 33 33 32 32 32 32 33 34 34 35 35 36 36 36 36 36 36 37 38 39 40 40 41 42 43 47 51 52 52 52 52 53 53 53 53 53 53 53 53 53 53 52 52 52 52 53 53 52 50 49 49 50 49 48 47 47 45 44 44 43 40 38 35 34 34 34 31 31 29 28 27 27
24 25 25 25 24 23 22 23 24 25 24 24 23 24 23 23 23 23 24 22 22 22 27 32 32 32 32 32 32 32 32 33 34 35 36 35 36 36 35 35 35 35 35 37 38 39 39 39 40 40 41 45 50 50 51 52 52 51 52 52 52 51 52 51 52 51 51 51 50 51 51 51 51 50 48 48 48 48 48 47 47 44 43 42 42 39 36 33 33 33 32 31 29 28 28 26 29
24 26 25 23 24 23 25 26 26 27 24 23 23 23 23 23 24 24 25 25 28 26 30 31 32 32 32 32 32 32 32 33 35 35 35 35 36 35 35 35 34 34 35 35 36 37 38 38 39 39 40 41 45 46 47 48 49 48 49 49 47 48 48 49 50 50 50 50 49 50 50 50 50 50 49 48 48 47 46 45 45 44 42 41 41 40 38 34 33 33 32 31 29 27 26 26 29
21 24 23 22 25 23 25 25 26 26 23 23 23 24 25 24 24 25 26 30 30 29 30 31 31 31 32 31 31 32 32 34 34 33 33 34 35 35 35 34 35 33 34 34 35 36 36 37 37 38 39 39 40 44 45 44 45 46 46 45 46 46 48 49 49 49 48 48 48 48 47 47 47 48 48 47 46 46 45 44 44 45 42 40 40 39 37 35 32 32 30 28 28 27 25 26 30
25 23 24 25 26 28 27 27 28 25 26 24 25 24 24 24 25 27 30 31 32 32 32 31 31 31 31 31 31 31 31 31 31 32 32 33 34 34 34 34 34 34 34 34 34 35 35 36 36 37 37 38 39 40 42 44 43 43 43 43 44 43 43 44 44 44 45 46 45 44 46 47 47 47 47 46 45 44 44 43 42 43 42 41 40 38 37 34 32 31 29 29 27 26 25 28 28
27 27 25 25 27 26 25 26 27 28 25 26 26 24 25 25 26 28 30 31 32 33 33 33 33 32 32 31 31 30 30 30 30 30 30 31 32 32 33 33 34 34 34 34 34 34 34 35 35 36 36 37 38 39 39 40 41 41 41 41 41 40 40 39 39 39 41 44 45 43 43 43 43 43 43 43 44 43 42 41 40 40 41 40 40 39 36 35 32 30 29 28 28 25 24 24 29
29 29 28 27 27 27 26 25 29 27 27 27 24 24 24 26 24 26 27 29 30 31 32 32 32 33 33 32 32 32 30 29 29 29 29 29 29 30 31 32 33 33 34 34 34 34 34 34 35 35 35 36 36 37 38 39 39 38 38 38 38 38 38 38 38 38 38 40 42 44 43 40 41 41 40 40 41 41 41 40 39 38 39 39 39 38 37 35 34 31 30 28 26 26 26 24 26
29 30 29 28 28 26 28 30 25 25 25 26 24 19 21 25 26 26 26 28 29 30 31 31 31 31 31 30 30 30 30 30 28 28 28 28 28 29 29 30 30 31 32 33 34 34 34 34 34 34 35 35 35 36 37 37 37 37 37 37 36 36 36 37 37 37 37 38 40 41 42 42 41 40 39 39 39 39 39 38 38 36 36 37 38 38 36 36 34 32 30 29 27 25 25 24 23
26 28 31 29 29 28 28 27 26 22 21 24 26 18 18 24 23 25 25 28 29 30 30 30 30 30 30 30 30 29 28 27 27 27 26 26 27 27 27 28 29 29 30 32 33 33 33 34 34 34 34 34 35 35 35 36 35 36 36 36 36 36 35 36 36 37 36 36 36 36 38 39 40 41 41 39 39 38 38 37 37 37 35 35 35 35 35 34 34 33 32 30 28 29 25 22 22
26 28 31 31 30 28 27 26 25 25 25 26 25 24 21 21 23 26 26 28 28 29 29 29 29 29 29 29 29 28 28 28 27 26 25 25 25 25 26 27 28 29 29 30 30 31 32 33 33 33 34 34 34 34 34 35 34 34 34 34 35 35 35 34 35 35 35 35 35 35 35 35 36 37 39 39 40 40 39 39 37 36 36 34 33 33 34 34 34 34 33 31 29 28 27 24 22
28 30 29 28 29 27 27 24 24 24 23 23 23 24 20 20 23 26 26 26 27 28 28 29 29 29 29 29 29 28 28 27 26 25 25 24 24 24 25 25 27 27 28 28 29 29 30 31 31 31 32 33 33 33 33 34 34 34 34 33 33 34 34 34 34 34 34 34 33 34 34 34 34 34 35 36 36 36 37 38 38 38 37 36 33 33 32 32 31 31 30 31 29 29 27 26 24
30 31 30 29 29 27 25 24 23 23 20 20 23 24 16 19 24 25 25 25 26 28 28 28 29 29 29 29 28 27 27 27 26 25 24 24 24 23 24 24 24 26 27 28 27 28 28 28 28 28 28 30 31 32 32 33 33 33 33 32 32 32 32 32 32 32 33 33 32 33 33 33 34 33 33 34 34 34 34 35 37 37 37 37 35 34 32 32 32 31 30 30 30 29 29 28 26
32 30 28 27 26 26 25 25 22 19 15 21 23 24 20 16 22 25 24 25 26 28 28 28 28 28 28 28 27 28 27 26 25 24 24 23 24 23 23 22 23 24 25 25 25 25 26 27 27 27 27 27 27 28 29 30 31 32 32 32 32 31 32 31 30 30 31 31 31 31 32 32 32 32 33 33 33 33 33 33 34 35 36 36 36 35 34 34 33 31 31 29 29 29 28 28 27
29 26 25 26 26 22 21 17 21 16 16 19 23 24 23 16 19 23 24 26 27 28 27 27 26 27 27 26 27 26 26 26 25 25 24 23 23 22 22 21 21 22 23 23 24 24 24 24 24 25 26 27 25 25 26 27 27 29 30 30 30 30 30 29 28 28 29 29 29 29 30 30 30 31 31 31 32 32 33 33 33 33 34 35 35 35 35 34 34 32 31 30 29 29 29 29 27
27 25 26 21 17 16 12 15 14 15 15 19 23 25 23 22 23 24 26 26 27 28 27 27 26 26 26 26 26 27 26 25 25 24 24 24 23 23 23 22 21 21 22 22 23 22 22 21 21 22 23 25 25 24 24 24 25 25 26 27 28 28 27 28 28 27 28 27 27 26 27 27 27 28 29 29 30 31 32 32 32 32 33 33 34 34 34 34 34 33 32 31 30 29 29 28 28
26 25 23 20 16 14 8 9 9 9 16 19 22 24 21 23 23 27 26 26 27 28 28 27 26 25 25 26 26 26 26 26 25 25 24 24 24 25 25 25 24 23 22 22 22 22 21 21 20 20 21 23 24 23 22 22 23 24 24 25 26 26 25 25 27 27 27 26 26 24 25 26 26 27 27 28 30 30 30 30 31 31 32 32 33 33 33 34 33 33 33 32 32 31 29 28 28
25 26 25 24 18 9 8 7 7 10 13 14 20 14 14 17 19 27 27 26 26 27 27 26 26 26 26 26 26 25 25 24 24 24 24 24 25 25 25 26 26 26 24 23 22 22 21 20 20 20 20 22 23 23 22 21 22 22 23 24 24 25 25 24 25 27 26 26 25 23 23 25 25 25 26 27 28 28 28 28 29 29 30 31 31 32 32 32 32 32 32 32 31 31 30 29 28
25 26 26 21 22 21 15 13 6 7 12 14 14 17 19 22 26 26 26 25 25 26 26 26 25 26 25 24 24 24 24 24 24 24 23 23 24 25 25 25 26 27 27 25 23 23 23 22 20 20 21 22 22 22 22 20 20 20 21 21 22 23 24 24 25 26 25 27 26 26 23 24 25 26 25 26 27 27 27 27 27 27 28 29 30 30 31 31 31 31 31 31 31 31 30 30 29
25 25 21 25 27 24 17 18 17 15 13 18 11 21 22 24 26 25 25 24 25 25 24 24 25 25 24 24 24 24 24 23 24 24 23 23 23 24 25 25 26 26 26 26 25 24 24 24 22 21 21 22 23 23 23 23 21 20 20 20 21 22 22 22 22 23 25 26 26 26 26 24 25 26 27 27 27 26 26 26 26 26 26 28 28 29 30 30 30 30 30 30 30 30 30 30 29
26 21 25 27 28 27 22 15 11 13 14 14 14 17 17 18 15 23 23 23 24 24 24 24 24 24 23 24 24 24 24 24 23 24 24 24 24 25 25 26 27 27 27 26 24 24 25 25 23 22 21 22 23 24 24 24 24 23 21 20 21 22 23 22 23 22 24 23 23 23 25 24 23 26 28 28 26 26 26 27 26 25 26 26 27 27 28 29 29 30 30 30 30 30 30 30 29
27 25 28 24 18 19 22 16 14 13 10 11 14 19 17 20 19 22 23 23 23 23 24 24 24 24 23 24 25 25 24 25 25 24 24 25 24 25 25 25 28 30 30 29 29 26 24 23 23 22 22 24 24 26 25 25 26 26 25 22 22 21 22 23 23 22 21 21 22 23 22 24 22 23 24 24 23 24 25 25 26 26 25 25 25 25 27 27 28 28 28 29 29 30 30 29 29
29 28 26 27 24 19 15 21 16 14 11 11 7 13 16 20 21 23 23 23 23 23 24 23 23 24 24 24 25 25 25 26 26 27 26 26 25 25 25 24 25 27 28 30 30 28 23 24 22 21 21 23 22 23 24 23 26 26 26 24 22 23 22 23 22 22 20 20 22 22 21 21 21 21 22 22 21 22 22 23 24 25 25 25 25 24 25 26 27 27 27 28 27 29 29 29 29
25 25 24 25 21 25 24 20 20 19 12 12 13 14 17 22 26 24 24 24 24 23 24 24 24 24 25 26 26 27 27 27 27 27 26 26 27 27 27 27 27 28 28 27 26 24 26 24 22 24 20 22 22 23 26 24 26 26 26 25 24 23 22 23 21 21 22 21 21 23 22 22 22 20 21 21 20 20 21 21 22 23 23 24 24 24 24 25 25 25 26 26 27 27 28 28 28
26 27 25 26 21 20 18 19 22 16 17 13 14 17 14 24 29 26 25 24 24 24 24 25 25 25 27 28 28 28 28 28 27 26 26 27 26 25 24 25 26 26 23 20 22 23 23 22 22 23 22 21 23 21 23 23 24 26 25 25 24 25 24 23 22 22 22 22 21 21 22 23 21 21 21 21 20 21 21 20 20 20 20 21 22 23 23 24 24 24 24 26 26 26 26 26 27